Location: Dompnac
(44.5644°N, 4.1026°E)
Time: 16:56:07
(UTC+00:00)

Cosmos 1634 Rocket - Pass Details

Date: 24 January 2021
Orbit: 961 x 991 km, 82.9° (Epoch: 05 March)

Event Time Altitude Azimuth Distance (km) Brightness Sun altitude
Rises 05:26:36 0° 179° (S) 3,629 7.1 -18.4°
Reaches altitude 10° 05:29:05 10° 177° (S) 2,687 6.5 -17.9°
Maximum altitude 05:35:12 72° 95° (E) 1,010 4.2 -16.9°
Drops below altitude 10° 05:41:22 10° 12° (NNE) 2,712 6.3 -15.8°
Sets 05:43:53 0° 11° (N) 3,666 7.0 -15.4°
